CW2303 Weather Reports


Display with metric or nautical units.
time (UTC)temp
F
wind
direction
speed
MPH
gust
MPH
rain 1hr
in
rain 24hr
in
rain mn
in
humidity
%
barometer
mb
20260507012543 53 10 0.0 2.0 0.00 0.05 0.03 58 1017.1
20260507012042 53 355 0.0 2.0 0.00 0.05 0.03 58 1017.1
20260507011552 53 327 0.0 2.0 0.00 0.05 0.03 57 1017.1
20260507011042 54 0 0.0 2.0 0.00 0.05 0.03 58 1017.0
20260507010543 54 344 0.0 1.0 0.00 0.05 0.03 55 1017.0
20260507010103 54 17 0.0 3.0 0.00 0.05 0.03 56 1016.8
20260507005543 54 0 0.0 3.0 0.00 0.07 0.03 55 1016.8
20260507005042 54 339 1.0 4.0 0.00 0.07 0.03 53 1016.8
20260507004551 55 11 0.0 5.0 0.00 0.07 0.03 53 1016.7
20260507004045 55 340 2.0 5.0 0.00 0.07 0.03 51 1016.6
20260507003542 55 328 1.0 7.0 0.00 0.07 0.03 52 1016.6
20260507003052 55 298 2.0 7.0 0.00 0.07 0.03 50 1016.6
20260507002542 56 15 1.0 9.0 0.00 0.07 0.03 52 1016.5
20260507002042 56 23 4.0 9.0 0.00 0.07 0.03 50 1016.4
20260507001557 56 322 2.0 7.0 0.00 0.07 0.03 51 1016.3
20260507001041 56 338 4.0 8.0 0.00 0.07 0.03 49 1016.2
20260507000542 56 347 2.0 8.0 0.00 0.07 0.03 49 1016.2
20260507000055 56 347 3.0 8.0 0.00 0.07 0.03 50 1016.1
20260506235542 56 319 3.0 12.0 0.00 0.15 0.03 50 1015.9
20260506235041 57 15 5.0 13.0 0.00 0.15 0.03 48 1015.8
20260506234554 57 342 4.0 13.0 0.00 0.15 0.03 49 1015.7
20260506234042 57 19 8.0 13.0 0.00 0.15 0.03 46 1015.7
20260506233544 58 348 6.0 13.0 0.00 0.15 0.03 47 1015.6
20260506233104 58 305 4.0 12.0 0.00 0.15 0.03 46 1015.6
20260506232542 58 327 5.0 12.0 0.00 0.15 0.03 45 1015.7
20260506232042 58 350 4.0 10.0 0.00 0.15 0.03 45 1015.7
20260506231600 58 333 6.0 12.0 0.00 0.15 0.03 44 1015.8
20260506231043 59 315 4.0 13.0 0.00 0.15 0.03 45 1015.8
20260506230542 59 309 6.0 13.0 0.00 0.15 0.03 43 1015.8
20260506225544 59 321 2.0 10.0 0.00 0.15 0.03 47 1015.7
20260506225042 59 20 5.0 10.0 0.00 0.15 0.03 44 1015.6
20260506224553 59 87 6.0 11.0 0.00 0.15 0.03 47 1015.6
20260506224044 59 20 5.0 11.0 0.00 0.15 0.03 45 1015.7
20260506223543 59 33 3.0 11.0 0.00 0.15 0.03 49 1015.8
20260506223053 59 342 2.0 9.0 0.00 0.15 0.03 46 1015.7
20260506222545 58 311 3.0 11.0 0.00 0.15 0.03 47 1015.7
20260506222043 59 38 4.0 11.0 0.00 0.15 0.03 47 1015.7
20260506221558 59 326 4.0 11.0 0.00 0.15 0.03 47 1015.6
20260506221042 58 28 3.0 8.0 0.00 0.15 0.03 51 1015.6
20260506220543 58 294 2.0 11.0 0.00 0.15 0.03 53 1015.7
20260506220056 58 325 2.0 11.0 0.00 0.15 0.03 48 1015.7
20260506215545 59 15 5.0 11.0 0.00 0.17 0.03 48 1015.6
20260506215042 59 317 4.0 11.0 0.00 0.17 0.03 48 1015.7
20260506214552 59 305 3.0 11.0 0.00 0.17 0.03 49 1015.7
20260506214041 59 325 5.0 11.0 0.00 0.17 0.03 49 1015.8
20260506213544 59 10 5.0 12.0 0.00 0.17 0.03 50 1016.0
20260506213052 60 339 5.0 20.0 0.00 0.17 0.03 48 1016.2
20260506212542 60 329 9.0 20.0 0.00 0.17 0.03 55 1016.1
20260506212046 60 287 3.0 12.0 0.00 0.17 0.03 47 1016.2
20260506211608 60 22 5.0 12.0 0.00 0.17 0.03 47 1016.2
20260506211044 59 334 1.0 11.0 0.00 0.17 0.03 50 1016.2
20260506210542 58 288 5.0 11.0 0.00 0.17 0.03 48 1016.0
20260506210052 58 304 5.0 13.0 0.00 0.17 0.03 50 1016.0
20260506205546 58 344 3.0 13.0 0.00 0.19 0.03 50 1016.1
20260506205042 59 11 2.0 9.0 0.00 0.19 0.03 51 1016.1
20260506204555 59 317 5.0 11.0 0.00 0.19 0.03 48 1016.2
20260506204043 58 335 5.0 13.0 0.00 0.19 0.03 48 1016.3
20260506203542 59 46 6.0 13.0 0.00 0.19 0.03 49 1016.2
20260506203055 58 317 3.0 11.0 0.00 0.19 0.03 53 1016.3
20260506202542 58 336 3.0 12.0 0.00 0.19 0.03 50 1016.5
20260506202043 57 49 4.0 13.0 0.00 0.19 0.03 50 1016.6
20260506201553 57 84 6.0 16.0 0.00 0.19 0.03 49 1016.7
20260506201043 57 346 6.0 16.0 0.00 0.19 0.03 48 1016.7
20260506200542 58 329 6.0 16.0 0.00 0.19 0.03 48 1016.8
20260506200055 58 20 3.0 16.0 0.00 0.19 0.03 54 1016.9
20260506195542 58 302 8.0 16.0 0.00 0.19 0.03 49 1016.9
20260506195042 58 346 6.0 16.0 0.00 0.19 0.03 49 1016.8
20260506194554 58 286 4.0 11.0 0.00 0.19 0.03 52 1016.9
20260506194041 57 342 5.0 11.0 0.00 0.19 0.03 54 1017.2
20260506193542 57 327 3.0 11.0 0.00 0.19 0.03 55 1017.2
20260506193054 57 13 3.0 11.0 0.00 0.19 0.03 56 1017.3
20260506192542 57 300 5.0 11.0 0.00 0.19 0.03 53 1017.3
20260506192042 57 321 2.0 8.0 0.00 0.19 0.03 53 1017.3
20260506191553 57 317 2.0 9.0 0.00 0.19 0.03 51 1017.3
20260506191044 57 340 3.0 9.0 0.00 0.19 0.03 52 1017.4
20260506190542 57 38 4.0 11.0 0.00 0.19 0.03 52 1017.5
20260506190055 57 325 1.0 13.0 0.00 0.19 0.03 54 1017.6
20260506185542 57 34 7.0 13.0 0.00 0.19 0.03 53 1017.7
20260506185042 57 13 1.0 11.0 0.00 0.19 0.03 58 1017.8
20260506184553 56 30 4.0 11.0 0.00 0.19 0.03 54 1017.9
20260506184042 57 328 3.0 11.0 0.00 0.19 0.03 55 1017.9
20260506183542 56 352 2.0 9.0 0.00 0.19 0.03 56 1018.0
20260506183053 56 308 4.0 9.0 0.00 0.19 0.03 55 1018.0
20260506182541 56 300 3.0 8.0 0.00 0.19 0.03 55 1017.8
20260506182045 56 30 3.0 9.0 0.00 0.19 0.03 57 1017.9
20260506181552 56 299 2.0 9.0 0.00 0.19 0.03 62 1017.9
20260506181046 55 349 2.0 10.0 0.00 0.19 0.03 56 1018.0
20260506180544 55 318 4.0 10.0 0.00 0.19 0.03 59 1018.0
20260506180055 55 336 4.0 10.0 0.00 0.19 0.03 58 1018.0
20260506175543 55 30 2.0 12.0 0.00 0.19 0.03 63 1018.0
20260506175043 54 0 2.0 12.0 0.00 0.19 0.03 59 1018.1
20260506174552 54 291 5.0 12.0 0.00 0.19 0.03 60 1018.2
20260506174042 54 333 4.0 11.0 0.00 0.19 0.03 62 1018.2
20260506173545 54 316 6.0 11.0 0.00 0.19 0.03 61 1018.3
20260506173107 54 330 3.0 12.0 0.00 0.19 0.03 60 1018.3
20260506172542 54 9 6.0 12.0 0.00 0.19 0.03 60 1018.0
20260506172042 54 309 4.0 12.0 0.00 0.19 0.03 63 1017.8
20260506171553 54 329 5.0 12.0 0.00 0.19 0.03 61 1017.7
20260506171042 54 327 2.0 13.0 0.00 0.19 0.03 65 1017.7
20260506170542 53 327 4.0 13.0 0.00 0.19 0.03 62 1017.7
20260506170100 53 338 7.0 13.0 0.00 0.19 0.03 62 1017.7
20260506165545 53 360 6.0 11.0 0.00 0.19 0.03 66 1017.8
20260506165042 53 11 6.0 10.0 0.00 0.19 0.03 67 1017.8
20260506164610 53 312 4.0 10.0 0.00 0.19 0.03 65 1017.9
20260506164041 53 331 5.0 10.0 0.00 0.19 0.03 65 1017.7
20260506163541 53 28 2.0 10.0 0.00 0.19 0.03 67 1017.9
20260506163058 53 10 2.0 9.0 0.00 0.19 0.03 68 1018.0
20260506162542 53 63 4.0 9.0 0.00 0.19 0.03 66 1017.9
20260506162041 53 18 4.0 8.0 0.00 0.19 0.03 67 1017.9
20260506161554 53 311 3.0 8.0 0.00 0.19 0.03 67 1017.7
20260506161043 54 35 3.0 6.0 0.00 0.19 0.03 65 1017.6
20260506160542 54 0 0.0 7.0 0.00 0.19 0.03 68 1017.6
20260506160106 53 119 1.0 9.0 0.00 0.19 0.03 67 1017.5
20260506155542 53 11 1.0 9.0 0.00 0.19 0.03 69 1017.3
20260506155042 52 22 1.0 8.0 0.00 0.19 0.03 69 1017.2
20260506154555 52 308 1.0 5.0 0.00 0.19 0.03 72 1017.4
20260506154042 52 330 0.0 4.0 0.00 0.19 0.03 71 1017.1
20260506153541 51 0 1.0 4.0 0.00 0.19 0.03 74 1017.2
20260506153055 50 313 1.0 4.0 0.00 0.19 0.03 76 1017.4
20260506152542 50 0 1.0 4.0 0.00 0.19 0.03 75 1017.4
20260506152042 49 318 0.0 5.0 0.00 0.19 0.03 75 1017.4
20260506151553 49 0 0.0 8.0 0.00 0.19 0.03 78 1017.5
20260506151042 48 24 3.0 8.0 0.00 0.19 0.03 77 1017.5
20260506150543 48 51 2.0 10.0 0.00 0.19 0.03 78 1017.4
20260506150054 48 327 3.0 10.0 0.00 0.19 0.03 76 1017.4
20260506145546 48 0 3.0 10.0 0.00 0.19 0.03 77 1017.3
20260506145042 48 325 4.0 9.0 0.00 0.19 0.03 79 1017.3
20260506144554 48 332 4.0 9.0 0.00 0.19 0.03 79 1017.3
20260506144042 47 344 5.0 10.0 0.00 0.19 0.03 77 1017.2
20260506143542 47 11 3.0 10.0 0.00 0.19 0.03 78 1017.3
20260506143055 47 37 2.0 8.0 0.00 0.19 0.03 80 1017.2
20260506142542 47 331 1.0 6.0 0.00 0.19 0.03 82 1017.2
20260506142042 47 11 1.0 10.0 0.00 0.19 0.03 84 1017.2
20260506141609 46 55 4.0 10.0 0.00 0.19 0.03 82 1017.2
20260506141044 46 5 4.0 9.0 0.00 0.19 0.03 82 1016.9
20260506140544 46 327 1.0 9.0 0.00 0.19 0.03 85 1016.9
20260506140055 46 35 1.0 9.0 0.00 0.19 0.03 86 1016.9
20260506135541 46 339 3.0 12.0 0.00 0.19 0.03 85 1016.8
20260506135041 45 322 3.0 12.0 0.00 0.19 0.03 85 1016.6
20260506134549 45 319 5.0 11.0 0.00 0.19 0.03 87 1016.6
20260506134043 45 348 4.0 11.0 0.00 0.19 0.03 87 1016.6
20260506133543 45 347 5.0 11.0 0.00 0.19 0.03 89 1016.7
20260506133059 45 29 1.0 4.0 0.00 0.19 0.03 91 1016.8
20260506132542 44 309 2.0 8.0 0.00 0.19 0.03 91 1016.8
20260506132042 44 345 2.0 8.0 0.00 0.19 0.03 91 1016.8
20260506131555 44 337 2.0 7.0 0.00 0.19 0.03 91 1017.0
20260506131042 44 329 2.0 7.0 0.00 0.19 0.03 92 1017.0
20260506130542 44 321 2.0 7.0 0.00 0.19 0.03 91 1017.2
20260506130054 44 13 2.0 8.0 0.00 0.19 0.03 92 1017.1
20260506125542 44 317 2.0 8.0 0.00 0.19 0.03 91 1017.1
20260506125042 43 311 3.0 8.0 0.00 0.19 0.03 91 1017.2
20260506124553 43 320 2.0 8.0 0.00 0.19 0.03 92 1017.4
20260506124042 43 323 1.0 8.0 0.00 0.19 0.03 92 1017.4
20260506123542 43 0 2.0 8.0 0.00 0.19 0.03 93 1017.2
20260506123048 43 327 1.0 7.0 0.00 0.19 0.03 93 1017.2
20260506122542 43 0 1.0 7.0 0.00 0.19 0.03 92 1016.9
20260506122043 43 344 2.0 6.0 0.00 0.19 0.03 93 1016.8
20260506121602 43 22 3.0 7.0 0.00 0.19 0.03 93 1017.0
20260506121042 43 348 2.0 7.0 0.01 0.19 0.03 93 1016.9
20260506120543 43 15 2.0 5.0 0.01 0.19 0.03 93 1016.7
20260506120118 43 327 1.0 4.0 0.01 0.19 0.03 93 1016.7
20260506115543 43 319 1.0 6.0 0.01 0.19 0.03 93 1016.7
20260506115042 43 346 1.0 6.0 0.01 0.19 0.03 93 1016.4
20260506114551 43 338 2.0 8.0 0.01 0.19 0.03 93 1016.4
20260506114042 43 340 2.0 8.0 0.01 0.19 0.03 93 1016.1
20260506113542 43 18 2.0 6.0 0.01 0.19 0.03 93 1016.1
20260506113059 43 345 2.0 7.0 0.01 0.19 0.03 94 1015.8
20260506112543 43 296 3.0 10.0 0.01 0.19 0.03 94 1015.9
20260506112044 43 28 3.0 10.0 0.01 0.19 0.03 94 1015.6
20260506111554 43 317 4.0 8.0 0.01 0.19 0.03 94 1015.4
20260506111042 43 333 2.0 8.0 0.00 0.18 0.02 94 1015.5
20260506110543 43 325 3.0 8.0 0.00 0.18 0.02 94 1015.3
20260506110056 43 52 1.0 4.0 0.00 0.18 0.02 94 1015.2
20260506105543 43 329 1.0 5.0 0.00 0.18 0.02 94 1015.3
20260506105041 43 0 1.0 5.0 0.00 0.18 0.02 94 1015.1
20260506104552 43 326 1.0 3.0 0.00 0.18 0.02 94 1015.2
20260506104042 43 312 0.0 3.0 0.00 0.18 0.02 93 1015.1
20260506103542 43 9 1.0 4.0 0.00 0.18 0.02 93 1015.0
20260506103054 43 348 1.0 4.0 0.00 0.18 0.02 93 1014.9
20260506102543 43 29 0.0 5.0 0.00 0.18 0.02 93 1015.0
20260506102043 43 320 1.0 5.0 0.00 0.18 0.02 93 1014.9
20260506101553 43 30 2.0 3.0 0.00 0.18 0.02 93 1014.7
20260506101042 43 360 0.0 5.0 0.00 0.18 0.02 93 1014.8
20260506100542 43 331 1.0 5.0 0.00 0.18 0.02 93 1014.9
20260506100057 43 305 1.0 5.0 0.00 0.18 0.02 93 1015.2
20260506095542 43 0 0.0 1.0 0.00 0.18 0.02 92 1014.8
20260506095042 43 0 0.0 1.0 0.00 0.18 0.02 92 1014.3
20260506094551 43 0 0.0 2.0 0.00 0.18 0.02 92 1013.9
20260506094042 43 337 0.0 2.0 0.00 0.18 0.02 92 1014.7
20260506093543 43 327 1.0 2.0 0.00 0.18 0.02 92 1014.7
20260506093054 43 296 0.0 1.0 0.00 0.18 0.02 92 1014.9
20260506092542 43 302 0.0 2.0 0.00 0.18 0.02 92 1014.8
20260506092042 43 0 0.0 2.0 0.00 0.18 0.02 91 1014.0
20260506091549 43 0 0.0 4.0 0.00 0.18 0.02 91 1013.8
20260506091041 43 0 0.0 6.0 0.00 0.18 0.02 91 1013.8
20260506090543 43 350 3.0 7.0 0.00 0.18 0.02 91 1013.5
20260506090052 43 342 2.0 7.0 0.00 0.18 0.02 91 1013.4
20260506085542 43 340 3.0 7.0 0.00 0.19 0.02 92 1012.8
20260506085042 43 316 2.0 5.0 0.00 0.19 0.02 92 1012.7
20260506084552 43 49 0.0 5.0 0.00 0.19 0.02 92 1012.5
20260506084043 43 32 0.0 5.0 0.01 0.19 0.02 93 1012.4
20260506083543 43 39 1.0 5.0 0.01 0.19 0.02 93 1012.5
20260506083054 42 78 0.0 5.0 0.01 0.19 0.02 93 1012.5
20260506082543 42 21 0.0 3.0 0.01 0.19 0.02 93 1012.5
20260506082043 42 0 0.0 5.0 0.01 0.19 0.02 93 1012.3
20260506081555 42 0 0.0 5.0 0.01 0.19 0.02 93 1012.4
20260506081042 42 78 0.0 5.0 0.01 0.19 0.02 93 1012.3
20260506080545 42 35 1.0 5.0 0.01 0.19 0.02 93 1012.4
20260506073059 42 328 1.0 8.0 0.00 0.18 0.01 94 1013.7
20260506072543 42 322 2.0 8.0 0.00 0.18 0.01 93 1013.9
20260506072043 42 339 1.0 6.0 0.00 0.18 0.01 93 1013.7
20260506071554 42 315 2.0 5.0 0.00 0.18 0.01 93 1013.7
20260506071042 42 342 1.0 4.0 0.00 0.18 0.01 93 1013.7
20260506070542 42 322 1.0 8.0 0.00 0.18 0.01 93 1013.8
20260506070115 42 331 2.0 8.0 0.00 0.18 0.01 94 1013.8
20260506062044 42 327 0.0 3.0 0.01 0.18 0.01 93 1014.1
20260506061553 42 0 0.0 3.0 0.01 0.18 0.01 93 1013.9
20260506061046 42 0 1.0 3.0 0.01 0.18 0.01 93 1013.8
20260506060542 42 17 0.0 3.0 0.01 0.18 0.01 93 1013.6
20260506051043 42 339 1.0 5.0 0.00 0.17 0.00 93 1013.2
20260506050542 42 30 0.0 5.0 0.00 0.17 0.00 93 1012.9
20260506050110 42 24 0.0 5.0 0.00 0.17 0.00 93 1013.0
20260506045042 42 42 2.0 6.0 0.00 0.17 0.17 93 1012.7
20260506044600 42 40 0.0 9.0 0.00 0.17 0.17 93 1012.4
20260506044042 42 32 0.0 9.0 0.00 0.17 0.17 93 1012.1
20260506043542 42 0 2.0 9.0 0.00 0.17 0.17 93 1012.3
20260506043053 42 344 0.0 4.0 0.00 0.17 0.17 93 1012.4
20260506042543 42 328 0.0 5.0 0.00 0.17 0.17 93 1012.4
20260506042042 42 41 0.0 5.0 0.00 0.17 0.17 93 1012.4
20260506041556 42 328 0.0 5.0 0.00 0.17 0.17 93 1012.4
20260506041045 42 0 0.0 5.0 0.00 0.17 0.17 93 1012.6
20260506040542 42 39 0.0 9.0 0.00 0.17 0.17 93 1012.7
20260506040101 42 22 0.0 9.0 0.00 0.17 0.17 93 1012.9
20260506035544 42 9 1.0 10.0 0.00 0.17 0.17 93 1013.1
20260506035043 42 13 0.0 15.0 0.00 0.17 0.17 93 1012.8
20260506034553 42 48 3.0 15.0 0.00 0.17 0.17 93 1012.7
20260506034042 43 317 5.0 15.0 0.00 0.17 0.17 94 1012.6
20260506033543 43 344 3.0 11.0 0.00 0.17 0.17 95 1012.5
20260506033053 43 349 4.0 11.0 0.00 0.17 0.17 95 1012.4
20260506032543 43 46 4.0 11.0 0.00 0.17 0.17 95 1012.4
20260506032043 43 309 3.0 11.0 0.00 0.17 0.17 95 1012.5
20260506031559 43 340 4.0 9.0 0.00 0.17 0.17 94 1012.3
20260506031043 43 332 4.0 12.0 0.00 0.17 0.17 94 1012.1
20260506030542 43 323 2.0 12.0 0.00 0.17 0.17 94 1012.2
20260506030112 43 0 2.0 9.0 0.00 0.17 0.17 94 1011.8
20260506025542 43 46 4.0 9.0 0.00 0.17 0.17 94 1011.7
20260506025042 43 17 4.0 9.0 0.00 0.17 0.17 94 1011.8
20260506024553 43 66 2.0 9.0 0.00 0.17 0.17 94 1011.8
20260506024043 43 348 2.0 9.0 0.00 0.17 0.17 94 1011.8
20260506023543 43 19 4.0 9.0 0.00 0.17 0.17 94 1011.8
20260506023054 43 31 2.0 8.0 0.00 0.17 0.17 94 1011.8
20260506022545 43 318 2.0 8.0 0.00 0.17 0.17 94 1011.8
20260506022042 43 16 2.0 8.0 0.00 0.17 0.17 94 1011.8
20260506021558 43 326 2.0 11.0 0.00 0.17 0.17 94 1011.6
20260506021042 43 82 3.0 11.0 0.01 0.17 0.17 94 1011.6
20260506020541 43 343 4.0 11.0 0.01 0.17 0.17 94 1011.6
20260506020052 43 313 3.0 9.0 0.02 0.17 0.17 94 1011.4
20260506015543 43 0 2.0 9.0 0.02 0.17 0.17 94 1011.2
20260506015043 43 311 2.0 9.0 0.02 0.17 0.17 94 1011.0
20260506014559 43 31 2.0 10.0 0.02 0.17 0.17 94 1011.0
20260506014044 43 325 1.0 10.0 0.02 0.17 0.17 94 1011.1
20260506013542 43 46 2.0 10.0 0.02 0.17 0.17 94 1010.9
20260506013053 43 329 3.0 9.0 0.03 0.17 0.17 94 1011.2